00:41
Airports
History
Links
Donate
Help keep this website running!
PayPal
Bitcoin
This page is community maintained. The information is intended for PC simulator navigation or reference.
Always use approved charts for navigation.
CYLW
Kelowna
Kelowna (CYLW)
Kelowna, British Columbia, Canada
(C)
Lat/Lng:49° 57' 22.02" N / 119° 22' 39.93" W
49.956117 / -119.377757
Elevation:1409'ft / 429mMSL
ID / ICAO:CYLW
Runways:1
Longest:16-34
Asphalt 2,221m / 7,286ft
Controlled:Yes
METAR00:22 GMT 2017-11-21
Altimeter: 29.82
Visibility: 9.0 statute miles
Wind: 3 knots (from 110°)
Temp: 3°c / 37°f
Humidity: 93.1%

METAR: CYLW 210022Z AUTO 11003KT 9SM -RA SCT031 SCT042 OVC065 03/02 A2982 RMK SLP113

(Powered by phpweather)
Airport Radio Frequencies
ATIS: 127.5
Ground: 121.7
Tower: 119.6
Nearby VORs <50NM
Nearby NDBs
Runway 16 / 34
Dimensions:2220.9 x 61m 7286' x 200'ft
Surface:Asphalt
Edge Lights:Medium intensity
Runway 16 [A]Runway 34 [B]
Heading:174°TH 354°TH
Lat:
Lng:
49° 57' 57.88"N
119° 22' 44.91"W
49° 56' 46.16"N
119° 22' 34.94"W
ALS:ODALSODALS
User Notes and Comments
49° 57' 22.02" N / 119° 22' 39.93" W
Distance To
Airport ID:
Nearby Airports
(U) VERNON 20.3 NM
CYVK N
(U) Penticton 35.5 NM
CYYF ( WX ) SSW 196°
(U) Douglas Lake 38.6 NM
AL3 WNW 292°
(U) SALMON ARM 50.6 NM
CZAM N
(U) PRINCETON 60.9 NM
CYDC ( WX ) SW 236°
(U) Merritt 61.8 NM
AD5 W 280°
(U) Dorothy Scott 68.9 NM
0S7 S 181°
VFR Chart
Flight Planning at SkyVector.com